SCP
0 0 0 0 0 0 0 0 0 0 0 0 0 0 0 0 0 0 0 0 0 0
0 0 0 0 0 0 0 0 0 0 0 0 0 0 0 0 0 0 0 0 0 0
0 0 0 0 0 0 0 0 0 0 0 0 0 0 0 0 0 0 0 0 0 0
0 0 0 0 0 0 0 0 0 0 0 0 0 0 0 0 0 0 0 0 0 0
0 0 0 0 0 0 0 0 0 0 0 0 0 0 0 0 0 0 0 0 0 0
0 0 0 0 0 0 0 0 0 0 0 0 0 0 0 0 0 0 0 0 0 0
0 0 0 0 0 0 0 0 0 0 0 0 0 0 0 0 0 0 0 0 0 0
0 0 0 0 0 0 0 0 0 0 0 0 0 0 0 0 0 0 0 0 0 0
0 0 0 0 0 0 0 0 0 0 0 0 0 0 0 0 0 0 0 0 0 0
0 0 0 0 0 0 0 0 0 0 0 0 0 0 0 0 0 0 0 0 0 0
0 0 0 0 0 0 0 0 0 0 0 0 0 0 0 0 0 0 0 0 0 0
0 0 0 0 0 0 0 0 0 0 0 0 0 0 0 0 0 0 0 0 0 0
0 0 0 0 0 0 0 0 0 0 0 0 0 0 0 0 0 0 0 0 0 0
0 0 0 0 0 0 0 0 0 0 0 0 0 0 0 0 0 0 0 0 0 0
Wind_Speed_500mb
24 21 13 8 10 7 4 1 6 11 15 20 24 26 29 32 33 34 35 36 39 41
25 21 16 16 12 8 3 4 9 14 20 23 27 30 32 33 34 36 38 41 43 46
29 23 17 13 8 3 3 7 13 18 24 30 32 34 35 36 38 40 42 46 48 49
28 23 18 13 8 3 4 10 16 23 29 32 34 35 36 39 42 46 48 50 53 54
32 26 20 15 11 7 9 13 20 25 30 31 33 35 38 41 45 49 51 54 56 57
38 31 24 19 16 14 15 18 23 26 30 32 35 38 42 45 48 51 54 56 59 61
42 33 29 24 23 21 22 25 27 29 31 33 35 41 45 49 52 54 56 58 60 61
44 39 34 32 29 28 29 33 35 36 36 36 37 42 48 54 56 57 58 57 59 61
50 44 41 38 35 34 37 40 43 43 41 40 42 46 53 57 58 59 60 60 59 62
55 48 45 43 42 43 44 46 47 46 47 46 46 51 56 58 59 60 59 61 63 65
56 52 50 49 50 50 50 50 49 50 50 49 50 53 57 59 59 60 61 62 64 66
56 54 53 53 53 52 52 52 52 52 51 51 52 56 59 59 60 61 60 61 63 65
50 51 56 54 53 52 51 52 51 52 53 55 58 58 57 57 59 60 58 60 63 63
44 51 55 56 57 56 53 52 52 54 57 60 60 59 56 56 56 55 57 62 65 63
Wind_Direction_500mb
176 171 166 178 168 157 149 26 352 350 350 351 347 345 341 339 337 337 334 334 332 330
183 184 183 174 168 160 119 22 355 350 345 346 343 339 337 333 332 332 331 330 331 330
194 191 187 183 178 160 4 346 343 342 339 337 332 331 330 328 330 330 330 330 329 329
198 198 197 203 204 222 307 327 333 333 328 327 325 325 326 327 330 329 328 327 327 326
205 203 207 216 225 256 289 310 318 322 322 323 320 323 325 327 328 325 324 323 323 322
208 208 215 223 240 255 276 297 308 315 317 318 318 320 323 323 321 321 320 320 319 319
212 214 223 233 245 258 274 288 295 301 307 311 316 320 321 319 317 316 315 316 315 315
217 223 228 237 251 262 274 283 285 291 296 303 310 314 316 315 311 310 311 312 313 315
223 228 236 243 255 267 274 282 281 281 287 294 302 309 312 312 309 308 309 311 313 314
228 233 241 250 260 270 274 278 278 279 285 292 300 308 310 308 307 307 308 310 312 312
231 236 244 255 264 268 273 276 278 280 285 292 300 305 307 305 305 305 306 308 309 310
234 240 250 258 264 269 273 276 279 281 285 292 299 303 302 301 301 302 304 306 307 309
238 247 255 258 261 266 271 275 278 284 289 293 297 299 298 298 299 300 303 303 306 310
246 254 257 256 258 263 268 274 280 284 288 291 295 296 295 294 296 299 302 303 306 307
Wind_Speed_850mb
24 21 13 8 10 7 4 1 6 11 15 20 24 26 29 32 33 34 35 36 39 41
25 21 16 16 12 8 3 4 9 14 20 23 27 30 32 33 34 36 38 41 43 46
29 23 17 13 8 3 3 7 13 18 24 30 32 34 35 36 38 40 42 46 48 49
28 23 18 13 8 3 4 10 16 23 29 32 34 35 36 39 42 46 48 50 53 54
32 26 20 15 11 7 9 13 20 25 30 31 33 35 38 41 45 49 51 54 56 57
38 31 24 19 16 14 15 18 23 26 30 32 35 38 42 45 48 51 54 56 59 61
42 33 29 24 23 21 22 25 27 29 31 33 35 41 45 49 52 54 56 58 60 61
44 39 34 32 29 28 29 33 35 36 36 36 37 42 48 54 56 57 58 57 59 61
50 44 41 38 35 34 37 40 43 43 41 40 42 46 53 57 58 59 60 60 59 62
55 48 45 43 42 43 44 46 47 46 47 46 46 51 56 58 59 60 59 61 63 65
56 52 50 49 50 50 50 50 49 50 50 49 50 53 57 59 59 60 61 62 64 66
56 54 53 53 53 52 52 52 52 52 51 51 52 56 59 59 60 61 60 61 63 65
50 51 56 54 53 52 51 52 51 52 53 55 58 58 57 57 59 60 58 60 63 63
44 51 55 56 57 56 53 52 52 54 57 60 60 59 56 56 56 55 57 62 65 63
Wind_Direction_850mb
176 171 166 178 168 157 149 26 352 350 350 351 347 345 341 339 337 337 334 334 332 330
183 184 183 174 168 160 119 22 355 350 345 346 343 339 337 333 332 332 331 330 331 330
194 191 187 183 178 160 4 346 343 342 339 337 332 331 330 328 330 330 330 330 329 329
198 198 197 203 204 222 307 327 333 333 328 327 325 325 326 327 330 329 328 327 327 326
205 203 207 216 225 256 289 310 318 322 322 323 320 323 325 327 328 325 324 323 323 322
208 208 215 223 240 255 276 297 308 315 317 318 318 320 323 323 321 321 320 320 319 319
212 214 223 233 245 258 274 288 295 301 307 311 316 320 321 319 317 316 315 316 315 315
217 223 228 237 251 262 274 283 285 291 296 303 310 314 316 315 311 310 311 312 313 315
223 228 236 243 255 267 274 282 281 281 287 294 302 309 312 312 309 308 309 311 313 314
228 233 241 250 260 270 274 278 278 279 285 292 300 308 310 308 307 307 308 310 312 312
231 236 244 255 264 268 273 276 278 280 285 292 300 305 307 305 305 305 306 308 309 310
234 240 250 258 264 269 273 276 279 281 285 292 299 303 302 301 301 302 304 306 307 309
238 247 255 258 261 266 271 275 278 284 289 293 297 299 298 298 299 300 303 303 306 310
246 254 257 256 258 263 268 274 280 284 288 291 295 296 295 294 296 299 302 303 306 307